Time,TemperatureF,DewpointF,PressureIn,WindDirection,WindDirectionDegrees,WindSpeedMPH,WindSpeedGustMPH,Humidity,HourlyPrecipIn,Conditions,Clouds,dailyrainin,SoftwareType,DateUTC
2013-03-28 00:00:00,31.1,25.7,30.03,NNW,337,0.0,0.0,80,0.00,,,0.00,WUHU21623XXSP,2013-03-28 04:00:00,
2013-03-28 00:05:00,30.9,25.5,30.03,NNW,337,0.0,0.0,80,0.00,,,0.00,WUHU21623XXSP,2013-03-28 04:05:00,
2013-03-28 00:10:00,31.1,25.7,30.03,NNW,337,0.0,0.0,80,0.00,,,0.00,WUHU21623XXSP,2013-03-28 04:10:00,
2013-03-28 00:15:00,30.9,25.5,30.03,NNW,337,0.0,0.0,80,0.00,,,0.00,WUHU21623XXSP,2013-03-28 04:15:00,
2013-03-28 00:20:00,30.9,25.5,30.03,NNW,337,0.0,0.0,80,0.00,,,0.00,WUHU21623XXSP,2013-03-28 04:20:00,
2013-03-28 00:25:00,30.9,25.5,30.03,NNW,337,0.0,0.0,80,0.00,,,0.00,WUHU21623XXSP,2013-03-28 04:25:00,
2013-03-28 00:30:00,30.9,25.5,30.03,NNW,337,0.0,0.0,80,0.00,,,0.00,WUHU21623XXSP,2013-03-28 04:30:00,
2013-03-28 00:35:00,30.7,25.3,30.03,NNW,337,0.0,0.0,80,0.00,,,0.00,WUHU21623XXSP,2013-03-28 04:35:00,
2013-03-28 00:40:00,30.7,25.3,30.03,NNW,337,0.0,0.0,80,0.00,,,0.00,WUHU21623XXSP,2013-03-28 04:40:00,
2013-03-28 00:45:00,30.7,25.3,30.03,NNW,337,0.0,0.0,80,0.00,,,0.00,WUHU21623XXSP,2013-03-28 04:45:00,
2013-03-28 00:50:00,30.7,25.3,30.03,NNW,337,0.0,0.0,80,0.00,,,0.00,WUHU21623XXSP,2013-03-28 04:50:00,
2013-03-28 00:55:00,30.7,25.3,30.03,NNW,337,0.0,0.0,80,0.00,,,0.00,WUHU21623XXSP,2013-03-28 04:55:00,
2013-03-28 01:00:00,30.7,25.6,30.03,NNW,337,0.0,0.0,81,0.00,,,0.00,WUHU21623XXSP,2013-03-28 05:00:00,
2013-03-28 01:05:00,30.7,25.6,30.03,NNW,337,0.0,0.0,81,0.00,,,0.00,WUHU21623XXSP,2013-03-28 05:05:00,
2013-03-28 01:10:00,30.7,25.6,30.03,NNW,337,0.0,0.0,81,0.00,,,0.00,WUHU21623XXSP,2013-03-28 05:10:00,
2013-03-28 01:15:00,30.7,25.6,30.03,NNW,337,0.0,0.0,81,0.00,,,0.00,WUHU21623XXSP,2013-03-28 05:15:00,
2013-03-28 01:20:00,30.5,25.4,30.03,NNW,337,0.0,0.0,81,0.00,,,0.00,WUHU21623XXSP,2013-03-28 05:20:00,
2013-03-28 01:25:00,30.7,25.6,30.03,NNW,337,0.0,0.0,81,0.00,,,0.00,WUHU21623XXSP,2013-03-28 05:25:00,
2013-03-28 01:30:00,30.5,25.4,30.03,NNW,337,0.0,0.0,81,0.00,,,0.00,WUHU21623XXSP,2013-03-28 05:30:00,
2013-03-28 01:35:00,30.5,25.4,30.03,NNW,337,0.0,0.0,81,0.00,,,0.00,WUHU21623XXSP,2013-03-28 05:35:00,
2013-03-28 01:40:00,30.5,25.4,30.03,NNW,337,0.0,0.0,81,0.00,,,0.00,WUHU21623XXSP,2013-03-28 05:40:00,
2013-03-28 01:45:00,30.5,25.4,30.03,NNW,337,0.0,0.0,81,0.00,,,0.00,WUHU21623XXSP,2013-03-28 05:45:00,
2013-03-28 01:50:00,30.5,25.4,30.03,NNW,337,0.0,0.0,81,0.00,,,0.00,WUHU21623XXSP,2013-03-28 05:50:00,
2013-03-28 01:55:00,30.5,25.4,30.03,NNW,337,0.0,0.0,81,0.00,,,0.00,WUHU21623XXSP,2013-03-28 05:55:00,
2013-03-28 02:00:00,30.5,25.4,30.03,NNW,337,0.0,0.0,81,0.00,,,0.00,WUHU21623XXSP,2013-03-28 06:00:00,
2013-03-28 02:05:00,30.5,25.4,30.03,NNW,337,0.0,0.0,81,0.00,,,0.00,WUHU21623XXSP,2013-03-28 06:05:00,
2013-03-28 02:10:00,30.5,25.4,30.03,NNW,337,0.0,0.0,81,0.00,,,0.00,WUHU21623XXSP,2013-03-28 06:10:00,
2013-03-28 02:15:00,30.5,25.4,30.03,NNW,337,0.0,0.0,81,0.00,,,0.00,WUHU21623XXSP,2013-03-28 06:15:00,
2013-03-28 02:20:00,30.5,25.4,30.03,NNW,337,0.0,0.0,81,0.00,,,0.00,WUHU21623XXSP,2013-03-28 06:20:00,
2013-03-28 02:25:00,30.5,25.4,30.03,NNW,337,0.0,0.0,81,0.00,,,0.00,WUHU21623XXSP,2013-03-28 06:25:00,
2013-03-28 02:30:00,30.5,25.4,30.03,NNW,337,0.0,0.0,81,0.00,,,0.00,WUHU21623XXSP,2013-03-28 06:30:00,
2013-03-28 02:35:00,30.5,25.4,30.02,NNW,337,0.0,0.0,81,0.00,,,0.00,WUHU21623XXSP,2013-03-28 06:35:00,
2013-03-28 02:40:00,30.5,25.4,30.02,NNW,337,0.0,0.0,81,0.00,,,0.00,WUHU21623XXSP,2013-03-28 06:40:00,
2013-03-28 02:45:00,30.5,25.4,30.03,NNW,337,0.0,0.0,81,0.00,,,0.00,WUHU21623XXSP,2013-03-28 06:45:00,
2013-03-28 02:50:00,30.5,25.4,30.02,NNW,337,0.0,0.0,81,0.00,,,0.00,WUHU21623XXSP,2013-03-28 06:50:00,
2013-03-28 02:55:00,30.5,25.4,30.03,NNW,337,0.0,0.0,81,0.00,,,0.00,WUHU21623XXSP,2013-03-28 06:55:00,
2013-03-28 03:00:00,30.5,25.4,30.03,NNW,337,0.0,0.0,81,0.00,,,0.00,WUHU21623XXSP,2013-03-28 07:00:00,
2013-03-28 03:05:00,30.5,25.4,30.03,NNW,337,0.0,0.0,81,0.00,,,0.00,WUHU21623XXSP,2013-03-28 07:05:00,
2013-03-28 03:10:00,30.5,25.4,30.03,NNW,337,0.0,0.0,81,0.00,,,0.00,WUHU21623XXSP,2013-03-28 07:10:00,
2013-03-28 03:15:00,30.5,25.4,30.03,NNW,337,0.0,0.0,81,0.00,,,0.00,WUHU21623XXSP,2013-03-28 07:15:00,
2013-03-28 03:20:00,30.5,25.4,30.03,NNW,337,0.0,0.0,81,0.00,,,0.00,WUHU21623XXSP,2013-03-28 07:20:00,
2013-03-28 03:25:00,30.5,25.4,30.03,NNW,337,0.0,0.0,81,0.00,,,0.00,WUHU21623XXSP,2013-03-28 07:25:00,
2013-03-28 03:30:00,30.5,25.4,30.02,NNW,337,0.0,0.0,81,0.00,,,0.00,WUHU21623XXSP,2013-03-28 07:30:00,
2013-03-28 03:35:00,30.4,25.3,30.02,NNW,337,0.0,0.0,81,0.00,,,0.00,WUHU21623XXSP,2013-03-28 07:35:00,
2013-03-28 03:40:00,30.4,25.3,30.03,NNW,337,0.0,0.0,81,0.00,,,0.00,WUHU21623XXSP,2013-03-28 07:40:00,
2013-03-28 03:45:00,30.4,25.3,30.02,NNW,337,0.0,0.0,81,0.00,,,0.00,WUHU21623XXSP,2013-03-28 07:45:00,
2013-03-28 03:50:00,30.4,25.3,30.02,NNW,337,0.0,0.0,81,0.00,,,0.00,WUHU21623XXSP,2013-03-28 07:50:00,
2013-03-28 03:55:00,30.4,25.3,30.02,NNW,337,0.0,0.0,81,0.00,,,0.00,WUHU21623XXSP,2013-03-28 07:55:00,
2013-03-28 04:00:00,30.4,25.3,30.02,NNW,337,0.0,0.0,81,0.00,,,0.00,WUHU21623XXSP,2013-03-28 08:00:00,
2013-03-28 04:05:00,30.4,25.3,30.02,NNW,337,0.0,0.0,81,0.00,,,0.00,WUHU21623XXSP,2013-03-28 08:05:00,
2013-03-28 04:10:00,30.4,25.3,30.02,NNW,337,0.0,0.0,81,0.00,,,0.00,WUHU21623XXSP,2013-03-28 08:10:00,
2013-03-28 04:15:00,30.4,25.6,30.02,NNW,337,0.0,0.0,82,0.00,,,0.00,WUHU21623XXSP,2013-03-28 08:15:00,
2013-03-28 04:20:00,30.4,25.6,30.02,NNW,337,0.0,0.0,82,0.00,,,0.00,WUHU21623XXSP,2013-03-28 08:20:00,
2013-03-28 04:25:00,30.4,25.6,30.02,NNW,337,0.0,0.0,82,0.00,,,0.00,WUHU21623XXSP,2013-03-28 08:25:00,
2013-03-28 04:30:00,30.4,25.6,30.03,NNW,337,0.0,0.0,82,0.00,,,0.00,WUHU21623XXSP,2013-03-28 08:30:00,
2013-03-28 04:35:00,30.4,25.6,30.03,NNW,337,0.0,0.0,82,0.00,,,0.00,WUHU21623XXSP,2013-03-28 08:35:00,
2013-03-28 04:40:00,30.4,25.6,30.03,NNW,337,0.0,0.0,82,0.00,,,0.00,WUHU21623XXSP,2013-03-28 08:40:00,
2013-03-28 04:45:00,30.4,25.6,30.03,NNW,337,0.0,0.0,82,0.00,,,0.00,WUHU21623XXSP,2013-03-28 08:45:00,
2013-03-28 04:50:00,30.4,25.6,30.03,NNW,337,0.0,0.0,82,0.00,,,0.00,WUHU21623XXSP,2013-03-28 08:50:00,
2013-03-28 04:55:00,30.4,25.6,30.03,NNW,337,0.0,0.0,82,0.00,,,0.00,WUHU21623XXSP,2013-03-28 08:55:00,
2013-03-28 05:00:00,30.4,25.6,30.03,NNW,337,0.0,0.0,82,0.00,,,0.00,WUHU21623XXSP,2013-03-28 09:00:00,
2013-03-28 05:05:00,30.4,25.6,30.03,NNW,337,0.0,0.0,82,0.00,,,0.00,WUHU21623XXSP,2013-03-28 09:05:00,
2013-03-28 05:10:00,30.2,25.4,30.03,NNW,337,0.0,0.0,82,0.00,,,0.00,WUHU21623XXSP,2013-03-28 09:10:00,
2013-03-28 05:15:00,30.4,25.6,30.03,NNW,337,0.0,0.0,82,0.00,,,0.00,WUHU21623XXSP,2013-03-28 09:15:00,
2013-03-28 05:20:00,30.4,25.6,30.03,NNW,337,0.0,0.0,82,0.00,,,0.00,WUHU21623XXSP,2013-03-28 09:20:00,
2013-03-28 05:25:00,30.2,25.4,30.03,NNW,337,0.0,0.0,82,0.00,,,0.00,WUHU21623XXSP,2013-03-28 09:25:00,
2013-03-28 05:30:00,30.2,25.4,30.04,NNW,337,0.0,0.0,82,0.00,,,0.00,WUHU21623XXSP,2013-03-28 09:30:00,
2013-03-28 05:35:00,30.2,25.4,30.03,NNW,337,0.0,0.0,82,0.00,,,0.00,WUHU21623XXSP,2013-03-28 09:35:00,
2013-03-28 05:40:00,30.2,25.4,30.03,NNW,337,0.0,0.0,82,0.00,,,0.00,WUHU21623XXSP,2013-03-28 09:40:00,
2013-03-28 05:45:00,30.4,25.6,30.03,NNW,337,0.0,0.0,82,0.00,,,0.00,WUHU21623XXSP,2013-03-28 09:45:00,
2013-03-28 05:50:00,30.2,25.4,30.04,NNW,337,0.0,0.0,82,0.00,,,0.00,WUHU21623XXSP,2013-03-28 09:50:00,
2013-03-28 05:55:00,30.2,25.4,30.04,NNW,337,0.0,0.0,82,0.00,,,0.00,WUHU21623XXSP,2013-03-28 09:55:00,
2013-03-28 06:00:00,30.4,25.6,30.03,NNW,337,0.0,0.0,82,0.00,,,0.00,WUHU21623XXSP,2013-03-28 10:00:00,
2013-03-28 06:05:00,30.2,25.4,30.03,NNW,337,0.0,0.0,82,0.00,,,0.00,WUHU21623XXSP,2013-03-28 10:05:00,
2013-03-28 06:10:00,30.2,25.4,30.04,NNW,337,0.0,0.0,82,0.00,,,0.00,WUHU21623XXSP,2013-03-28 10:10:00,
2013-03-28 06:15:00,30.2,25.4,30.04,NNW,337,0.0,0.0,82,0.00,,,0.00,WUHU21623XXSP,2013-03-28 10:15:00,
2013-03-28 06:20:00,30.2,25.4,30.04,NNW,337,0.0,0.0,82,0.00,,,0.00,WUHU21623XXSP,2013-03-28 10:20:00,
2013-03-28 06:25:00,30.2,25.4,30.04,NNW,337,0.0,0.0,82,0.00,,,0.00,WUHU21623XXSP,2013-03-28 10:25:00,
2013-03-28 06:30:00,30.2,25.4,30.04,NNW,337,0.0,0.0,82,0.00,,,0.00,WUHU21623XXSP,2013-03-28 10:30:00,
2013-03-28 06:35:00,30.2,25.4,30.05,NNW,337,0.0,0.0,82,0.00,,,0.00,WUHU21623XXSP,2013-03-28 10:35:00,
2013-03-28 06:40:00,30.2,25.4,30.05,NNW,337,0.0,0.0,82,0.00,,,0.00,WUHU21623XXSP,2013-03-28 10:40:00,
2013-03-28 06:45:00,30.2,25.4,30.05,NNW,337,0.0,0.0,82,0.00,,,0.00,WUHU21623XXSP,2013-03-28 10:45:00,
2013-03-28 06:50:00,30.2,25.4,30.05,NNW,337,0.0,0.0,82,0.00,,,0.00,WUHU21623XXSP,2013-03-28 10:50:00,
2013-03-28 06:55:00,30.2,25.4,30.05,NNW,337,0.0,0.0,82,0.00,,,0.00,WUHU21623XXSP,2013-03-28 10:55:00,
2013-03-28 07:00:00,30.4,25.6,30.05,NNW,337,0.0,0.0,82,0.00,,,0.00,WUHU21623XXSP,2013-03-28 11:00:00,
2013-03-28 07:05:00,30.4,25.6,30.05,NNW,337,0.0,0.0,82,0.00,,,0.00,WUHU21623XXSP,2013-03-28 11:05:00,
2013-03-28 07:10:00,30.2,25.4,30.05,NNW,337,0.0,0.0,82,0.00,,,0.00,WUHU21623XXSP,2013-03-28 11:10:00,
2013-03-28 07:15:00,30.4,25.6,30.06,NNW,337,0.0,0.0,82,0.00,,,0.00,WUHU21623XXSP,2013-03-28 11:15:00,
2013-03-28 07:20:00,30.4,25.6,30.06,NNW,337,0.0,0.0,82,0.00,,,0.00,WUHU21623XXSP,2013-03-28 11:20:00,
2013-03-28 07:25:00,30.5,25.9,30.06,NNW,337,0.0,0.0,83,0.00,,,0.00,WUHU21623XXSP,2013-03-28 11:25:00,
2013-03-28 07:30:00,30.5,25.7,30.07,NNW,337,0.0,0.0,82,0.00,,,0.00,WUHU21623XXSP,2013-03-28 11:30:00,
2013-03-28 07:35:00,30.5,25.7,30.07,NNW,337,0.0,0.0,82,0.00,,,0.00,WUHU21623XXSP,2013-03-28 11:35:00,
2013-03-28 07:40:00,30.7,25.8,30.07,NNW,337,0.0,0.0,82,0.00,,,0.00,WUHU21623XXSP,2013-03-28 11:40:00,
2013-03-28 07:45:00,30.5,25.9,30.07,NNW,337,0.0,0.0,83,0.00,,,0.00,WUHU21623XXSP,2013-03-28 11:45:00,
2013-03-28 07:50:00,30.5,25.7,30.07,NNW,337,0.0,0.0,82,0.00,,,0.00,WUHU21623XXSP,2013-03-28 11:50:00,
2013-03-28 07:55:00,30.7,26.1,30.08,NNW,337,0.0,0.0,83,0.00,,,0.00,WUHU21623XXSP,2013-03-28 11:55:00,
2013-03-28 08:00:00,30.7,26.1,30.08,NNW,337,0.0,0.0,83,0.00,,,0.00,WUHU21623XXSP,2013-03-28 12:00:00,
2013-03-28 08:05:00,30.7,25.8,30.08,NNW,337,0.0,0.0,82,0.00,,,0.00,WUHU21623XXSP,2013-03-28 12:05:00,
2013-03-28 08:10:00,30.7,26.1,30.08,NNW,337,0.0,0.0,83,0.00,,,0.00,WUHU21623XXSP,2013-03-28 12:10:00,
2013-03-28 08:15:00,30.9,26.3,30.08,NNW,337,0.0,0.0,83,0.00,,,0.00,WUHU21623XXSP,2013-03-28 12:15:00,
2013-03-28 08:20:00,30.9,26.3,30.08,NNW,337,0.0,0.0,83,0.00,,,0.00,WUHU21623XXSP,2013-03-28 12:20:00,
2013-03-28 08:25:00,31.1,26.5,30.08,NNW,337,0.0,0.0,83,0.00,,,0.00,WUHU21623XXSP,2013-03-28 12:25:00,
2013-03-28 08:30:00,31.1,26.2,30.08,NNW,337,0.0,0.0,82,0.00,,,0.00,WUHU21623XXSP,2013-03-28 12:30:00,
2013-03-28 08:35:00,31.1,26.2,30.08,NNW,337,0.0,0.0,82,0.00,,,0.00,WUHU21623XXSP,2013-03-28 12:35:00,
2013-03-28 08:40:00,31.3,26.4,30.09,NNW,337,0.0,0.0,82,0.00,,,0.00,WUHU21623XXSP,2013-03-28 12:40:00,
2013-03-28 08:45:00,31.3,26.4,30.09,NNW,337,0.0,0.0,82,0.00,,,0.00,WUHU21623XXSP,2013-03-28 12:45:00,
2013-03-28 08:50:00,31.4,26.5,30.08,NNW,337,0.0,0.0,82,0.00,,,0.00,WUHU21623XXSP,2013-03-28 12:50:00,
2013-03-28 08:55:00,31.6,26.7,30.09,NNW,337,0.0,0.0,82,0.00,,,0.00,WUHU21623XXSP,2013-03-28 12:55:00,
2013-03-28 09:00:00,31.6,26.7,30.09,NNW,337,0.0,0.0,82,0.00,,,0.00,WUHU21623XXSP,2013-03-28 13:00:00,
2013-03-28 09:05:00,31.6,26.7,30.09,NNW,337,0.0,0.0,82,0.00,,,0.00,WUHU21623XXSP,2013-03-28 13:05:00,
2013-03-28 09:10:00,31.6,26.7,30.09,NNW,337,0.0,0.0,82,0.00,,,0.00,WUHU21623XXSP,2013-03-28 13:10:00,
2013-03-28 09:15:00,31.8,26.9,30.09,NNW,337,0.0,0.0,82,0.00,,,0.00,WUHU21623XXSP,2013-03-28 13:15:00,
2013-03-28 09:20:00,32.0,27.1,30.09,NNW,337,0.0,0.0,82,0.00,,,0.00,WUHU21623XXSP,2013-03-28 13:20:00,
2013-03-28 09:25:00,32.2,27.3,30.09,NNW,337,0.0,0.0,82,0.00,,,0.00,WUHU21623XXSP,2013-03-28 13:25:00,
2013-03-28 09:30:00,32.2,27.3,30.09,NNW,337,0.0,0.0,82,0.00,,,0.00,WUHU21623XXSP,2013-03-28 13:30:00,
2013-03-28 09:35:00,32.3,27.4,30.10,NNW,337,0.0,0.0,82,0.00,,,0.00,WUHU21623XXSP,2013-03-28 13:35:00,
2013-03-28 09:40:00,32.3,27.4,30.09,NNW,337,0.0,0.0,82,0.00,,,0.00,WUHU21623XXSP,2013-03-28 13:40:00,
2013-03-28 09:45:00,32.5,27.6,30.10,NNW,337,0.0,0.0,82,0.00,,,0.00,WUHU21623XXSP,2013-03-28 13:45:00,
2013-03-28 09:50:00,32.7,27.8,30.10,NNW,337,0.0,0.0,82,0.00,,,0.00,WUHU21623XXSP,2013-03-28 13:50:00,
2013-03-28 09:55:00,32.9,28.0,30.10,West,270,0.0,0.0,82,0.00,,,0.00,WUHU21623XXSP,2013-03-28 13:55:00,
2013-03-28 10:00:00,33.2,28.0,30.10,West,270,0.0,0.0,81,0.00,,,0.00,WUHU21623XXSP,2013-03-28 14:00:00,
2013-03-28 10:05:00,33.2,28.0,30.10,NNW,337,0.0,0.0,81,0.00,,,0.00,WUHU21623XXSP,2013-03-28 14:05:00,
2013-03-28 10:10:00,33.2,28.0,30.10,NNW,337,0.0,0.0,81,0.00,,,0.00,WUHU21623XXSP,2013-03-28 14:10:00,
2013-03-28 10:15:00,33.2,28.0,30.10,NNW,337,0.0,0.0,81,0.00,,,0.00,WUHU21623XXSP,2013-03-28 14:15:00,
2013-03-28 10:20:00,33.2,28.0,30.10,NNW,337,0.0,0.0,81,0.00,,,0.00,WUHU21623XXSP,2013-03-28 14:20:00,
2013-03-28 10:25:00,33.4,28.2,30.10,NNW,337,0.0,0.0,81,0.00,,,0.00,WUHU21623XXSP,2013-03-28 14:25:00,
2013-03-28 10:30:00,33.4,28.2,30.10,NNW,337,0.0,0.0,81,0.00,,,0.00,WUHU21623XXSP,2013-03-28 14:30:00,
2013-03-28 10:35:00,33.4,28.2,30.11,NW,315,0.0,0.0,81,0.00,,,0.00,WUHU21623XXSP,2013-03-28 14:35:00,
2013-03-28 10:40:00,33.8,28.6,30.11,NW,315,0.0,0.0,81,0.00,,,0.00,WUHU21623XXSP,2013-03-28 14:40:00,
2013-03-28 10:45:00,34.0,28.5,30.11,NNW,337,0.0,0.0,80,0.00,,,0.00,WUHU21623XXSP,2013-03-28 14:45:00,
2013-03-28 10:50:00,34.0,28.5,30.11,North,0,0.0,0.0,80,0.00,,,0.00,WUHU21623XXSP,2013-03-28 14:50:00,
2013-03-28 10:55:00,34.1,28.6,30.11,North,0,0.0,0.0,80,0.00,,,0.00,WUHU21623XXSP,2013-03-28 14:55:00,
2013-03-28 11:00:00,34.1,28.6,30.11,NNW,337,0.0,0.0,80,0.00,,,0.00,WUHU21623XXSP,2013-03-28 15:00:00,
2013-03-28 11:05:00,34.3,28.8,30.11,WNW,292,0.0,0.0,80,0.00,,,0.00,WUHU21623XXSP,2013-03-28 15:05:00,
2013-03-28 11:10:00,34.7,28.9,30.11,WNW,292,0.0,0.0,79,0.00,,,0.00,WUHU21623XXSP,2013-03-28 15:10:00,
2013-03-28 11:15:00,35.0,29.5,30.11,WNW,292,0.0,0.0,80,0.00,,,0.00,WUHU21623XXSP,2013-03-28 15:15:00,
2013-03-28 11:20:00,35.2,29.4,30.11,NW,315,0.0,0.0,79,0.00,,,0.00,WUHU21623XXSP,2013-03-28 15:20:00,
2013-03-28 11:25:00,35.6,29.7,30.11,NW,315,0.0,0.0,79,0.00,,,0.00,WUHU21623XXSP,2013-03-28 15:25:00,
2013-03-28 11:30:00,35.9,29.7,30.12,NW,315,1.7,2.9,78,0.00,,,0.00,WUHU21623XXSP,2013-03-28 15:30:00,
2013-03-28 11:35:00,36.1,29.9,30.11,WNW,292,0.0,2.9,78,0.00,,,0.00,WUHU21623XXSP,2013-03-28 15:35:00,
2013-03-28 11:40:00,36.3,30.1,30.11,WNW,292,0.0,1.6,78,0.00,,,0.00,WUHU21623XXSP,2013-03-28 15:40:00,
2013-03-28 11:45:00,36.3,30.1,30.11,NW,315,0.0,2.7,78,0.00,,,0.00,WUHU21623XXSP,2013-03-28 15:45:00,
2013-03-28 11:50:00,36.8,30.3,30.11,NW,315,1.0,4.0,77,0.00,,,0.00,WUHU21623XXSP,2013-03-28 15:50:00,
2013-03-28 11:55:00,37.6,31.1,30.11,NNW,347,1.8,4.0,77,0.00,,,0.00,WUHU21623XXSP,2013-03-28 15:55:00,
2013-03-28 12:00:00,38.1,31.2,30.11,NW,315,2.1,3.4,76,0.00,,,0.00,WUHU21623XXSP,2013-03-28 16:00:00,
2013-03-28 12:05:00,38.8,31.9,30.11,WSW,241,2.8,5.4,76,0.00,,,0.00,WUHU21623XXSP,2013-03-28 16:05:00,
2013-03-28 12:10:00,39.0,31.8,30.12,NW,315,1.3,5.4,75,0.03,,,0.03,WUHU21623XXSP,2013-03-28 16:10:00,
2013-03-28 12:15:00,39.4,31.9,30.12,NW,315,0.0,5.6,74,0.03,,,0.03,WUHU21623XXSP,2013-03-28 16:15:00,
2013-03-28 12:20:00,39.9,32.3,30.12,West,270,0.9,5.6,74,0.03,,,0.03,WUHU21623XXSP,2013-03-28 16:20:00,
2013-03-28 12:25:00,40.6,33.0,30.12,NW,318,1.4,5.1,74,0.03,,,0.03,WUHU21623XXSP,2013-03-28 16:25:00,
2013-03-28 12:30:00,41.3,33.4,30.11,West,270,1.1,3.4,73,0.05,,,0.05,WUHU21623XXSP,2013-03-28 16:30:00,
2013-03-28 12:35:00,41.9,33.9,30.11,WNW,292,0.0,2.9,73,0.05,,,0.05,WUHU21623XXSP,2013-03-28 16:35:00,
2013-03-28 12:40:00,42.4,33.7,30.11,NW,315,2.7,4.5,71,0.07,,,0.07,WUHU21623XXSP,2013-03-28 16:40:00,
2013-03-28 12:45:00,42.8,33.8,30.11,NNW,340,3.3,4.9,70,0.09,,,0.09,WUHU21623XXSP,2013-03-28 16:45:00,
2013-03-28 12:50:00,43.1,34.1,30.11,NW,308,2.8,4.9,70,0.09,,,0.09,WUHU21623XXSP,2013-03-28 16:50:00,
2013-03-28 12:55:00,43.7,34.3,30.11,NNW,332,4.1,9.4,69,0.11,,,0.11,WUHU21623XXSP,2013-03-28 16:55:00,
2013-03-28 13:00:00,43.0,32.9,30.11,SW,225,2.9,9.4,67,0.11,,,0.11,WUHU21623XXSP,2013-03-28 17:00:00,
2013-03-28 13:05:00,42.4,32.7,30.11,North,3,1.4,4.9,68,0.11,,,0.11,WUHU21623XXSP,2013-03-28 17:05:00,
2013-03-28 13:10:00,42.2,32.5,30.11,NW,315,5.7,6.3,68,0.08,,,0.11,WUHU21623XXSP,2013-03-28 17:10:00,
2013-03-28 13:15:00,42.2,32.1,30.11,North,352,3.6,7.8,67,0.08,,,0.11,WUHU21623XXSP,2013-03-28 17:15:00,
2013-03-28 13:20:00,42.2,31.7,30.11,NNW,337,4.7,7.8,66,0.08,,,0.11,WUHU21623XXSP,2013-03-28 17:20:00,
2013-03-28 13:25:00,42.6,32.1,30.11,NW,315,4.5,8.7,66,0.08,,,0.11,WUHU21623XXSP,2013-03-28 17:25:00,
2013-03-28 13:30:00,43.0,32.1,30.11,NW,315,4.0,8.7,65,0.06,,,0.11,WUHU21623XXSP,2013-03-28 17:30:00,
2013-03-28 13:35:00,43.1,31.8,30.11,NW,315,6.5,8.7,64,0.06,,,0.11,WUHU21623XXSP,2013-03-28 17:35:00,
2013-03-28 13:40:00,43.0,31.3,30.11,WNW,302,3.1,6.5,63,0.04,,,0.11,WUHU21623XXSP,2013-03-28 17:40:00,
2013-03-28 13:45:00,43.1,31.4,30.11,NW,326,2.5,6.3,63,0.02,,,0.11,WUHU21623XXSP,2013-03-28 17:45:00,
2013-03-28 13:50:00,43.7,32.0,30.11,NW,315,4.3,7.4,63,0.02,,,0.11,WUHU21623XXSP,2013-03-28 17:50:00,
2013-03-28 13:55:00,43.7,31.6,30.11,NW,315,4.5,7.4,62,0.00,,,0.11,WUHU21623XXSP,2013-03-28 17:55:00,
2013-03-28 14:00:00,43.3,31.2,30.11,WNW,292,3.1,6.9,62,0.00,,,0.11,WUHU21623XXSP,2013-03-28 18:00:00,
2013-03-28 14:05:00,43.0,30.9,30.11,NW,326,3.5,5.1,62,0.00,,,0.11,WUHU21623XXSP,2013-03-28 18:05:00,
2013-03-28 14:10:00,42.8,30.8,30.11,NW,316,2.3,7.2,62,0.00,,,0.11,WUHU21623XXSP,2013-03-28 18:10:00,
2013-03-28 14:15:00,42.4,30.4,30.11,NW,326,3.5,7.2,62,0.00,,,0.11,WUHU21623XXSP,2013-03-28 18:15:00,
2013-03-28 14:20:00,41.9,29.9,30.11,North,0,2.9,5.1,62,0.00,,,0.11,WUHU21623XXSP,2013-03-28 18:20:00,
2013-03-28 14:25:00,41.5,29.5,30.11,NNW,337,2.7,5.4,62,0.00,,,0.11,WUHU21623XXSP,2013-03-28 18:25:00,
2013-03-28 14:30:00,41.9,29.5,30.11,NW,315,4.0,5.4,61,0.00,,,0.11,WUHU21623XXSP,2013-03-28 18:30:00,
2013-03-28 14:36:00,42.4,30.0,30.11,NNW,328,3.3,5.1,61,0.00,,,0.11,WUHU21623XXSP,2013-03-28 18:36:00,
2013-03-28 14:41:00,43.7,31.6,30.11,NNW,332,2.9,5.1,62,0.00,,,0.11,WUHU21623XXSP,2013-03-28 18:41:00,
2013-03-28 14:46:00,44.6,31.6,30.10,NW,313,3.0,5.8,60,0.00,,,0.11,WUHU21623XXSP,2013-03-28 18:46:00,
2013-03-28 14:51:00,45.1,32.1,30.10,NNW,337,4.0,13.2,60,0.00,,,0.11,WUHU21623XXSP,2013-03-28 18:51:00,
2013-03-28 14:56:00,45.5,32.1,30.10,West,269,3.7,13.2,59,0.00,,,0.11,WUHU21623XXSP,2013-03-28 18:56:00,
2013-03-28 15:01:00,45.1,31.3,30.10,NW,313,3.1,8.3,58,0.00,,,0.11,WUHU21623XXSP,2013-03-28 19:01:00,
2013-03-28 15:06:00,44.8,30.5,30.10,WNW,302,2.4,7.2,57,0.00,,,0.11,WUHU21623XXSP,2013-03-28 19:06:00,
2013-03-28 15:11:00,44.0,29.8,30.10,NW,318,2.8,7.2,57,0.00,,,0.11,WUHU21623XXSP,2013-03-28 19:11:00,
2013-03-28 15:16:00,43.5,29.3,30.10,NW,316,3.7,6.0,57,0.00,,,0.11,WUHU21623XXSP,2013-03-28 19:16:00,
2013-03-28 15:21:00,43.1,29.4,30.10,NW,315,3.8,4.7,58,0.00,,,0.11,WUHU21623XXSP,2013-03-28 19:21:00,
2013-03-28 15:26:00,43.0,28.8,30.11,WNW,296,2.9,5.1,57,0.00,,,0.11,WUHU21623XXSP,2013-03-28 19:26:00,
2013-03-28 15:31:00,42.4,28.3,30.10,West,270,3.6,5.1,57,0.00,,,0.11,WUHU21623XXSP,2013-03-28 19:31:00,
2013-03-28 15:36:00,42.2,28.1,30.10,NW,315,3.8,5.8,57,0.00,,,0.11,WUHU21623XXSP,2013-03-28 19:36:00,
2013-03-28 15:41:00,42.1,28.0,30.10,NW,319,2.5,5.8,57,0.00,,,0.11,WUHU21623XXSP,2013-03-28 19:41:00,
2013-03-28 15:46:00,41.7,27.6,30.10,NW,315,2.6,3.8,57,0.00,,,0.11,WUHU21623XXSP,2013-03-28 19:46:00,
2013-03-28 15:51:00,41.5,27.4,30.10,NNW,343,3.1,5.6,57,0.00,,,0.11,WUHU21623XXSP,2013-03-28 19:51:00,
2013-03-28 15:56:00,41.5,27.9,30.10,WNW,301,3.6,5.6,58,0.00,,,0.11,WUHU21623XXSP,2013-03-28 19:56:00,
2013-03-28 16:01:00,41.7,28.1,30.10,NNW,337,2.7,4.3,58,0.00,,,0.11,WUHU21623XXSP,2013-03-28 20:01:00,
2013-03-28 16:06:00,41.5,27.9,30.10,NW,315,2.9,4.5,58,0.00,,,0.11,WUHU21623XXSP,2013-03-28 20:06:00,
2013-03-28 16:11:00,41.5,27.9,30.10,NW,315,5.4,5.8,58,0.00,,,0.11,WUHU21623XXSP,2013-03-28 20:11:00,
2013-03-28 16:16:00,41.5,27.9,30.11,NNW,332,3.3,6.3,58,0.00,,,0.11,WUHU21623XXSP,2013-03-28 20:16:00,
2013-03-28 16:21:00,41.3,27.7,30.11,NW,315,1.6,6.3,58,0.00,,,0.11,WUHU21623XXSP,2013-03-28 20:21:00,
2013-03-28 16:26:00,41.3,27.7,30.11,NNW,340,2.9,5.1,58,0.00,,,0.11,WUHU21623XXSP,2013-03-28 20:26:00,
2013-03-28 16:31:00,41.2,27.2,30.11,NNW,337,3.1,5.1,57,0.00,,,0.11,WUHU21623XXSP,2013-03-28 20:31:00,
2013-03-28 16:36:00,41.0,27.0,30.11,NW,315,5.4,7.2,57,0.00,,,0.11,WUHU21623XXSP,2013-03-28 20:36:00,
2013-03-28 16:41:00,40.8,26.8,30.11,North,0,2.9,7.4,57,0.00,,,0.11,WUHU21623XXSP,2013-03-28 20:41:00,
2013-03-28 16:46:00,40.6,26.6,30.11,North,0,3.6,7.4,57,0.00,,,0.11,WUHU21623XXSP,2013-03-28 20:46:00,
2013-03-28 16:51:00,40.6,26.6,30.11,NNW,337,2.9,7.4,57,0.00,,,0.11,WUHU21623XXSP,2013-03-28 20:51:00,
2013-03-28 16:56:00,40.4,26.4,30.11,NNW,336,3.2,7.8,57,0.00,,,0.11,WUHU21623XXSP,2013-03-28 20:56:00,
2013-03-28 17:01:00,40.4,26.4,30.12,North,0,3.1,7.8,57,0.00,,,0.11,WUHU21623XXSP,2013-03-28 21:01:00,
2013-03-28 17:06:00,40.3,26.3,30.12,NW,315,4.7,5.6,57,0.00,,,0.11,WUHU21623XXSP,2013-03-28 21:06:00,
2013-03-28 17:11:00,40.1,26.5,30.12,NNW,341,2.0,5.6,58,0.00,,,0.11,WUHU21623XXSP,2013-03-28 21:11:00,
2013-03-28 17:16:00,40.1,26.5,30.12,North,354,3.1,5.6,58,0.00,,,0.11,WUHU21623XXSP,2013-03-28 21:16:00,
2013-03-28 17:21:00,39.9,26.4,30.12,North,355,3.9,5.8,58,0.00,,,0.11,WUHU21623XXSP,2013-03-28 21:21:00,
2013-03-28 17:26:00,39.7,26.2,30.12,NNW,335,2.1,5.8,58,0.00,,,0.11,WUHU21623XXSP,2013-03-28 21:26:00,
2013-03-28 17:31:00,39.7,26.2,30.12,NNW,345,2.3,5.8,58,0.00,,,0.11,WUHU21623XXSP,2013-03-28 21:31:00,
2013-03-28 17:35:00,39.7,26.2,30.12,NNW,337,3.6,6.5,58,0.00,,,0.11,WUHU21623XXSP,2013-03-28 21:35:00,
2013-03-28 17:40:00,39.7,26.2,30.12,NNW,341,2.1,6.5,58,0.00,,,0.11,WUHU21623XXSP,2013-03-28 21:40:00,
2013-03-28 17:45:00,39.7,26.2,30.12,NNW,337,5.4,6.5,58,0.00,,,0.11,WUHU21623XXSP,2013-03-28 21:45:00,
2013-03-28 17:51:00,39.7,26.2,30.12,North,0,5.1,8.3,58,0.00,,,0.11,WUHU21623XXSP,2013-03-28 21:51:00,
2013-03-28 17:56:00,39.9,26.4,30.12,North,0,5.8,8.3,58,0.00,,,0.11,WUHU21623XXSP,2013-03-28 21:56:00,
2013-03-28 18:01:00,40.1,26.1,30.13,North,0,7.8,7.8,57,0.00,,,0.11,WUHU21623XXSP,2013-03-28 22:01:00,
2013-03-28 18:06:00,40.1,26.1,30.13,NNW,337,3.1,7.8,57,0.00,,,0.11,WUHU21623XXSP,2013-03-28 22:06:00,
2013-03-28 18:11:00,40.3,26.3,30.13,NNW,337,4.3,6.5,57,0.00,,,0.11,WUHU21623XXSP,2013-03-28 22:11:00,
2013-03-28 18:16:00,40.4,26.4,30.13,North,350,1.8,6.5,57,0.00,,,0.11,WUHU21623XXSP,2013-03-28 22:16:00,
2013-03-28 18:21:00,40.4,26.8,30.13,NNW,342,4.1,5.1,58,0.00,,,0.11,WUHU21623XXSP,2013-03-28 22:21:00,
2013-03-28 18:26:00,40.4,26.4,30.13,NNW,341,4.7,7.8,57,0.00,,,0.11,WUHU21623XXSP,2013-03-28 22:26:00,
2013-03-28 18:31:00,40.1,26.1,30.13,NNW,337,5.1,7.8,57,0.00,,,0.11,WUHU21623XXSP,2013-03-28 22:31:00,
2013-03-28 18:36:00,40.1,26.1,30.13,NNW,338,4.8,6.9,57,0.00,,,0.11,WUHU21623XXSP,2013-03-28 22:36:00,
2013-03-28 18:41:00,39.7,25.7,30.13,NNW,341,4.8,7.4,57,0.00,,,0.11,WUHU21623XXSP,2013-03-28 22:41:00,
2013-03-28 18:46:00,39.5,26.0,30.14,NNW,339,4.1,7.4,58,0.00,,,0.11,WUHU21623XXSP,2013-03-28 22:46:00,
2013-03-28 18:51:00,39.5,26.0,30.14,NNE,22,3.8,8.1,58,0.00,,,0.11,WUHU21623XXSP,2013-03-28 22:51:00,
2013-03-28 18:56:00,39.2,25.7,30.14,North,351,3.2,8.1,58,0.00,,,0.11,WUHU21623XXSP,2013-03-28 22:56:00,
2013-03-28 19:01:00,38.8,25.7,30.14,NNW,344,3.7,7.4,59,0.00,,,0.11,WUHU21623XXSP,2013-03-28 23:01:00,
2013-03-28 19:06:00,38.8,25.7,30.14,North,0,5.4,7.4,59,0.00,,,0.11,WUHU21623XXSP,2013-03-28 23:06:00,
2013-03-28 19:11:00,38.6,25.6,30.14,North,349,3.6,7.2,59,0.00,,,0.11,WUHU21623XXSP,2013-03-28 23:11:00,
2013-03-28 19:16:00,38.3,25.3,30.14,North,0,6.3,8.7,59,0.00,,,0.11,WUHU21623XXSP,2013-03-28 23:16:00,
2013-03-28 19:21:00,38.1,25.5,30.15,NNW,334,2.4,8.7,60,0.00,,,0.11,WUHU21623XXSP,2013-03-28 23:21:00,
2013-03-28 19:26:00,37.9,25.3,30.15,NNW,345,2.5,5.1,60,0.00,,,0.11,WUHU21623XXSP,2013-03-28 23:26:00,
2013-03-28 19:31:00,37.9,25.3,30.15,NNW,336,1.9,5.1,60,0.00,,,0.11,WUHU21623XXSP,2013-03-28 23:31:00,
2013-03-28 19:36:00,37.7,25.5,30.15,NNW,344,1.8,5.1,61,0.00,,,0.11,WUHU21623XXSP,2013-03-28 23:36:00,
2013-03-28 19:41:00,37.6,25.4,30.15,NNW,337,2.5,5.1,61,0.00,,,0.11,WUHU21623XXSP,2013-03-28 23:41:00,
2013-03-28 19:46:00,37.4,25.2,30.16,NW,325,1.5,2.5,61,0.00,,,0.11,WUHU21623XXSP,2013-03-28 23:46:00,
2013-03-28 19:51:00,37.0,24.9,30.16,NNW,337,1.8,2.9,61,0.00,,,0.11,WUHU21623XXSP,2013-03-28 23:51:00,
2013-03-28 19:56:00,37.0,25.3,30.16,NNW,337,0.7,2.9,62,0.00,,,0.11,WUHU21623XXSP,2013-03-28 23:56:00,
2013-03-28 20:01:00,37.0,25.3,30.16,NNW,337,1.6,2.9,62,0.00,,,0.11,WUHU21623XXSP,2013-03-29 00:01:00,
2013-03-28 20:06:00,36.8,25.1,30.16,WNW,299,1.1,1.6,62,0.00,,,0.11,WUHU21623XXSP,2013-03-29 00:06:00,
2013-03-28 20:11:00,36.8,25.1,30.16,NW,315,0.0,1.6,62,0.00,,,0.11,WUHU21623XXSP,2013-03-29 00:11:00,
2013-03-28 20:16:00,36.8,25.1,30.16,NNW,337,0.0,0.0,62,0.00,,,0.11,WUHU21623XXSP,2013-03-29 00:16:00,
2013-03-28 20:21:00,36.7,25.4,30.16,WNW,291,2.1,2.9,63,0.00,,,0.11,WUHU21623XXSP,2013-03-29 00:21:00,
2013-03-28 20:26:00,36.5,25.2,30.16,NW,315,0.0,2.9,63,0.00,,,0.11,WUHU21623XXSP,2013-03-29 00:26:00,
2013-03-28 20:31:00,36.5,25.2,30.16,NNW,337,0.0,0.0,63,0.00,,,0.11,WUHU21623XXSP,2013-03-29 00:31:00,
2013-03-28 20:36:00,36.5,25.2,30.16,WNW,283,2.0,2.5,63,0.00,,,0.11,WUHU21623XXSP,2013-03-29 00:36:00,
2013-03-28 20:41:00,36.3,25.0,30.16,SE,135,0.0,2.5,63,0.00,,,0.11,WUHU21623XXSP,2013-03-29 00:41:00,
2013-03-28 20:46:00,36.3,25.4,30.17,West,270,2.9,2.9,64,0.00,,,0.11,WUHU21623XXSP,2013-03-29 00:46:00,
2013-03-28 20:51:00,36.1,24.8,30.17,NNW,337,0.0,3.1,63,0.00,,,0.11,WUHU21623XXSP,2013-03-29 00:51:00,
2013-03-28 20:56:00,36.1,24.8,30.17,NNE,22,1.2,3.1,63,0.00,,,0.11,WUHU21623XXSP,2013-03-29 00:56:00,
2013-03-28 21:01:00,36.1,24.8,30.18,NNW,337,0.0,2.2,63,0.00,,,0.11,WUHU21623XXSP,2013-03-29 01:01:00,
2013-03-28 21:06:00,35.9,24.6,30.17,NNW,337,1.9,3.4,63,0.00,,,0.11,WUHU21623XXSP,2013-03-29 01:06:00,
2013-03-28 21:11:00,35.9,24.6,30.18,NNW,337,1.9,5.4,63,0.00,,,0.11,WUHU21623XXSP,2013-03-29 01:11:00,
2013-03-28 21:16:00,35.9,24.6,30.18,NNW,337,0.0,5.4,63,0.00,,,0.11,WUHU21623XXSP,2013-03-29 01:16:00,
2013-03-28 21:22:00,35.9,24.2,30.18,North,0,0.0,0.0,62,0.00,,,0.11,WUHU21623XXSP,2013-03-29 01:22:00,
2013-03-28 21:27:00,35.9,24.2,30.18,North,0,1.6,2.5,62,0.00,,,0.11,WUHU21623XXSP,2013-03-29 01:27:00,
2013-03-28 21:32:00,35.9,24.2,30.18,NNW,337,0.0,3.4,62,0.00,,,0.11,WUHU21623XXSP,2013-03-29 01:32:00,
2013-03-28 21:37:00,35.9,24.2,30.18,NW,315,1.5,3.4,62,0.00,,,0.11,WUHU21623XXSP,2013-03-29 01:37:00,
2013-03-28 21:42:00,35.9,24.2,30.18,NW,315,0.0,3.4,62,0.00,,,0.11,WUHU21623XXSP,2013-03-29 01:42:00,
2013-03-28 21:47:00,35.8,24.1,30.18,NW,315,0.0,0.0,62,0.00,,,0.11,WUHU21623XXSP,2013-03-29 01:47:00,
2013-03-28 21:52:00,35.8,24.1,30.18,NW,315,0.0,0.0,62,0.00,,,0.11,WUHU21623XXSP,2013-03-29 01:52:00,
2013-03-28 21:57:00,35.6,23.9,30.18,WNW,292,0.0,0.0,62,0.00,,,0.11,WUHU21623XXSP,2013-03-29 01:57:00,
2013-03-28 22:02:00,35.6,24.3,30.19,WNW,289,2.3,3.1,63,0.00,,,0.11,WUHU21623XXSP,2013-03-29 02:02:00,
2013-03-28 22:07:00,35.4,24.5,30.18,NNW,337,0.0,3.1,64,0.00,,,0.11,WUHU21623XXSP,2013-03-29 02:07:00,
2013-03-28 22:12:00,35.2,24.3,30.18,NW,315,0.0,2.5,64,0.00,,,0.11,WUHU21623XXSP,2013-03-29 02:12:00,
2013-03-28 22:17:00,35.2,24.7,30.18,NW,315,0.0,2.5,65,0.00,,,0.11,WUHU21623XXSP,2013-03-29 02:17:00,
2013-03-28 22:22:00,35.0,24.9,30.18,NW,315,0.0,0.0,66,0.00,,,0.11,WUHU21623XXSP,2013-03-29 02:22:00,
2013-03-28 22:27:00,35.0,24.9,30.18,WNW,292,0.0,0.0,66,0.00,,,0.11,WUHU21623XXSP,2013-03-29 02:27:00,
2013-03-28 22:32:00,34.9,24.8,30.18,NNW,337,0.0,1.1,66,0.00,,,0.11,WUHU21623XXSP,2013-03-29 02:32:00,
2013-03-28 22:37:00,34.7,24.9,30.18,NNW,337,0.0,1.1,67,0.00,,,0.11,WUHU21623XXSP,2013-03-29 02:37:00,
2013-03-28 22:42:00,34.7,24.9,30.18,NW,315,1.3,1.6,67,0.00,,,0.11,WUHU21623XXSP,2013-03-29 02:42:00,
2013-03-28 22:47:00,34.5,25.1,30.18,NNW,337,0.0,1.6,68,0.00,,,0.11,WUHU21623XXSP,2013-03-29 02:47:00,
2013-03-28 22:52:00,34.5,25.1,30.19,NW,315,0.0,3.6,68,0.00,,,0.11,WUHU21623XXSP,2013-03-29 02:52:00,
2013-03-28 22:57:00,34.5,25.4,30.19,NW,315,2.5,3.6,69,0.00,,,0.11,WUHU21623XXSP,2013-03-29 02:57:00,
2013-03-28 23:02:00,34.5,25.4,30.19,NNW,337,0.0,2.9,69,0.00,,,0.11,WUHU21623XXSP,2013-03-29 03:02:00,
2013-03-28 23:07:00,34.3,25.3,30.19,NNW,337,0.0,2.5,69,0.00,,,0.11,WUHU21623XXSP,2013-03-29 03:07:00,
2013-03-28 23:12:00,34.3,25.3,30.19,NNE,16,2.3,3.6,69,0.00,,,0.11,WUHU21623XXSP,2013-03-29 03:12:00,
2013-03-28 23:17:00,34.3,25.3,30.19,ESE,112,0.0,3.6,69,0.00,,,0.11,WUHU21623XXSP,2013-03-29 03:17:00,
2013-03-28 23:22:00,34.3,25.6,30.19,NE,45,0.0,0.0,70,0.00,,,0.11,WUHU21623XXSP,2013-03-29 03:22:00,
2013-03-28 23:27:00,34.1,25.4,30.19,NNW,337,0.0,2.0,70,0.00,,,0.11,WUHU21623XXSP,2013-03-29 03:27:00,
2013-03-28 23:32:00,34.1,25.4,30.19,NW,309,1.6,2.0,70,0.00,,,0.11,WUHU21623XXSP,2013-03-29 03:32:00,
2013-03-28 23:37:00,34.1,25.4,30.19,NE,46,1.7,2.9,70,0.00,,,0.11,WUHU21623XXSP,2013-03-29 03:37:00,
2013-03-28 23:42:00,34.1,25.4,30.19,NNW,337,0.0,2.5,70,0.00,,,0.11,WUHU21623XXSP,2013-03-29 03:42:00,
2013-03-28 23:47:00,34.1,25.4,30.19,NNE,22,0.0,0.7,70,0.00,,,0.11,WUHU21623XXSP,2013-03-29 03:47:00,
2013-03-28 23:52:00,34.1,25.4,30.20,NW,315,1.1,1.8,70,0.00,,,0.11,WUHU21623XXSP,2013-03-29 03:52:00,
2013-03-28 23:57:00,34.0,25.6,30.19,NNW,337,0.0,3.1,71,0.00,,,0.11,WUHU21623XXSP,2013-03-29 03:57:00,